На главную страницу сайта
· Магазин · Объявления · Рейтинг · Статьи · Частоты · Форум · Аэродромы · Live!
· Файлы · Диапазоны · Сигналы · Музей · Mods · LPD-форум · Клуб · Радиостанции
 
 · Список файлов · Закачать файл · Поиск · Архив: 2021 2020 2019 2018 2017 2016 2015 2014 2013 2012 2011 2010 2009 2008 2007 2006 2005 2004 ·

. 1 . 2 . 3 . 4 . >>Показать только картинки

Имя файла 
Описание файла 
Прислал 
Директория 

  Имя файла Размер Загружен Описание Прислал  
Поиск img_9601.jpg 68 Кб 18.05.2021 22:59 AAA8 Maxim  
Поиск img_9600.jpg 67 Кб 18.05.2021 22:58 AAA7 Maxim  
Поиск img_9599.jpg 68 Кб 18.05.2021 22:58 AAA6 Maxim  
Поиск img_9598.jpg 68 Кб 18.05.2021 22:58 AAA5 Maxim  
Поиск img_9567.jpg 70 Кб 18.05.2021 22:56 AAA4 Maxim  
Поиск img_9566.jpg 70 Кб 18.05.2021 22:56 AAA3 Maxim  
Поиск img_9565.jpg 71 Кб 18.05.2021 22:55 AAA2 Maxim  
Поиск img_9564.jpg 70 Кб 18.05.2021 22:54 AAA1 Maxim  
Поиск 2021_02_27_20_33_img.jpg 55 Кб 27.02.2021 21:08 LADA8 Maxim  
Поиск 2021_02_27_20_32_img.jpg 54 Кб 27.02.2021 21:08 LADA7 Maxim  
Поиск 2021_02_27_20_31_img.jpg 56 Кб 27.02.2021 21:08 LADA6 Maxim  
Поиск 2021_02_27_20_30_img.jpg 46 Кб 27.02.2021 21:08 LADA5 Maxim  
Поиск 2021_02_26_20_55_img.jpg 68 Кб 27.02.2021 21:07 LADA4 Maxim  
Поиск 2021_02_26_20_54_img.jpg 66 Кб 27.02.2021 21:07 LADA3 Maxim  
Поиск 2021_02_26_20_53_img.jpg 67 Кб 27.02.2021 21:04 LADA2 Maxim  
Поиск 2021_02_26_20_52_img.jpg 67 Кб 27.02.2021 21:03 LADA1 Maxim  
Поиск image-03-12-19-10-19.jpeg 246 Кб 03.12.2019 10:34 заброска Maxim  
Поиск 53309916.jpg 124 Кб 15.10.2019 11:39 Комар 2 диап Maxim  
Поиск ikea.jpg 44 Кб 14.07.2013 16:51 Аккумы Maxim  
Поиск 912944661.jpg 91 Кб 17.06.2013 14:00 Зеленые частоты-2 Maxim  
Поиск r_392a.jpg 27 Кб 17.06.2013 13:57 Зеленые частоты-1 Maxim  
Поиск st_25_with_ps-90.jpg 115 Кб 05.05.2013 15:57 Pace Maxim  
Поиск maxrad.jpg 34 Кб 08.04.2010 10:22 MaxRad CB Maxim  
Поиск eneloop8.jpg 26 Кб 09.12.2009 10:10 Eneloop Maxim  
Поиск eneloop7.jpg 33 Кб 09.12.2009 10:10 Eneloop Maxim  
Поиск eneloop5.jpg 127 Кб 08.12.2009 23:20 Eneloop Maxim  
Поиск eneloop4.jpg 102 Кб 08.12.2009 23:20 Eneloop Maxim  
Поиск eneloop3.jpg 168 Кб 08.12.2009 23:20 Eneloop Maxim  
Поиск eneloop2.jpg 144 Кб 08.12.2009 23:19 Eneloop Maxim  
Поиск eneloop1.jpg 144 Кб 08.12.2009 23:19 Eneloop Maxim  
Поиск normal_img_11921.jpg 75 Кб 26.08.2009 22:16 Eneloop 4 Maxim  
Поиск normal_img_11911.jpg 73 Кб 26.08.2009 22:15 Eneloop 3 Maxim  
Поиск normal_img_11901.jpg 94 Кб 26.08.2009 22:15 Eneloop 2 Maxim  
Поиск normal_img_11881.jpg 87 Кб 26.08.2009 22:14 Eneloop 1 Maxim  
Поиск p1010948.jpg 64 Кб 26.08.2009 09:20 Panasonic AA Maxim  
Поиск p10109411.jpg 119 Кб 17.05.2009 12:55 ATU-6C Maxim  
Поиск p10109381.jpg 126 Кб 17.05.2009 12:54 ATU-6C Maxim  
Поиск p1010937.jpg 117 Кб 17.05.2009 12:51 ATV-6XL Maxim  
Поиск p1010934.jpg 159 Кб 17.05.2009 12:50 ATV-6XL Maxim  
Поиск p1010933.jpg 104 Кб 17.05.2009 12:50 ATV-6XL Maxim  
Поиск p1010931.jpg 130 Кб 17.05.2009 12:50 ATV-6XL Maxim  
Поиск thf7a4.jpg 50 Кб 02.06.2008 17:21 резинка от TH-F7E Maxim  
Поиск thf7a3.jpg 67 Кб 02.06.2008 17:20 резинка от TH-F7E Maxim  
Поиск thf7a2.jpg 40 Кб 02.06.2008 17:20 резинка от TH-F7E Maxim  
Поиск thf7a1.jpg 57 Кб 02.06.2008 17:20 резинка от TH-F7E Maxim  
Поиск acars_1.jpg 34 Кб 24.10.2007 00:20 acars Maxim  
Поиск ic4088sr_power.jpg 35 Кб 23.10.2007 19:42 4088 mod Maxim  
Поиск gps_ink_1.jpg 96 Кб 16.05.2007 18:17 GPS Maxim  
Поиск gps_ink.jpg 71 Кб 16.05.2007 18:17 GPS Maxim  
Поиск usp1.jpg 99 Кб 07.05.2007 14:14 C праздником! Maxim  
Поиск auto.jpg 66 Кб 28.04.2007 14:25 еще машинка Maxim  
Поиск avto_s_sv.jpg 43 Кб 06.04.2007 23:19 к теме Maxim  
Поиск dc_ic91a.jpg 29 Кб 19.01.2007 12:06 ICOM IC-91 DC Maxim  
Поиск opek.pdf 66 Кб 13.01.2007 18:53 OPEK HR-601 V/U Maxim  
Поиск p1040136.jpg 82 Кб 29.12.2006 00:43 Башня 2 Maxim  
Поиск p1030106.jpg 83 Кб 29.12.2006 00:43 Башня 1 Maxim  
Поиск page_145.jpg 24 Кб 28.11.2006 15:06 Practical Antenna Design Maxim  
Поиск page_095.jpg 15 Кб 28.11.2006 15:06 Practical Antenna Design Maxim  
Поиск page_090.jpg 43 Кб 28.11.2006 15:06 Practical Antenna Design Maxim  
Поиск page_069.jpg 27 Кб 28.11.2006 15:06 Practical Antenna Design Maxim  

. 1 . 2 . 3 . 4 . >>
Средства связи, рации. Магазин Радиосканер. Купить радиостанции, приемники, антенны для раций, автомобильные антенны.
Radioscaner uploading center v.2.0; miniBB®